Ridgedale, MO

6:13 PM CST on February 14, 2016 (GMT -0600)
Branson

Weather History for KBBG - October, 2012

Change the Weather History Date:

Tuesday, October 23, 2012

  Actual Average (KHRO) Record (KHRO)
Temperature  
Mean Temperature 72 °F 57 °F  
Max Temperature 82 °F 68 °F 88 °F (1939)
Min Temperature 62 °F 46 °F 21 °F (1937)
Degree Days  
Heating Degree Days 0 9  
Month to date heating degree days 142  
Since 1 July heating degree days 185  
Cooling Degree Days 7 1  
Month to date cooling degree days 29  
Year to date cooling degree days 1408  
Growing Degree Days 22 (Base 50)    
Moisture  
Dew Point 59 °F    
Average Humidity 72    
Maximum Humidity 94    
Minimum Humidity 39    
Precipitation  
Precipitation 0.00 in 0.12 in 1.70 in (1951)
Month to date precipitation 2.59  
Year to date precipitation 35.75  
Snow  
Snow 0.00 in 0.00 in - ()
Month to date snowfall 0.0  
Since 1 July snowfall 0.0  
Since 1 September snowfall 0.0  
Snow Depth -    
Sea Level Pressure  
Sea Level Pressure 29.96 in    
Wind  
Wind Speed 5 mph (South)    
Max Wind Speed 13 mph    
Max Gust Speed 21 mph    
Visibility 10 miles    
Events Thunderstorm    
T = Trace of Precipitation, MM = Missing Value Source: NWS Daily Summary

Daily Weather History Graph

Daily Weather History Graph

Search for Another Location

Airport or City:

Trip Planner

Search our weather history database for the weather conditions in past years. The results will help you decide how hot, cold, wet, or windy it might be!

Date:

Astronomy

Oct. 23, 2012 Rise Set
Actual Time 7:27 AM CDT 6:25 PM CDT
Civil Twilight 7:01 AM CDT 6:51 PM CDT
Nautical Twilight 6:31 AM CDT 7:22 PM CDT
Astronomical Twilight 6:01 AM CDT 7:51 PM CDT
Moon 3:01 PM CDT (10/23) 1:30 AM CDT (10/23)
Length of Visible Light 11h 50m
Length of Day
10h 57m
Waxing Gibbous, 67% of the Moon is Illuminated
Oct 23
Waxing Gibbous
Oct 29
Full
Nov 6
Last Quarter
Nov 13
New
Nov 20
First Quarter

Hourly Weather History & Observations

Time (CDT) Temp. Heat Index Dew Point Humidity Pressure Visibility Wind Dir Wind Speed Gust Speed Precip Events Conditions
12:15 AM 68.0 °F - 62.6 °F 83% 29.99 in 10.0 mi South 4.6 mph - N/A Thunderstorm Overcast
12:35 AM 68.0 °F - 62.6 °F 83% 29.99 in 10.0 mi Calm Calm - N/A Thunderstorm Overcast
12:55 AM 68.0 °F - 62.6 °F 83% 29.98 in 10.0 mi Calm Calm - N/A Thunderstorm Overcast
1:15 AM 68.0 °F - 62.6 °F 83% 29.98 in 10.0 mi South 5.8 mph - N/A   Overcast
1:35 AM 68.0 °F - 62.6 °F 83% 29.98 in 10.0 mi South 3.5 mph - N/A Thunderstorm Overcast
1:55 AM 68.0 °F - 60.8 °F 78% 29.97 in 10.0 mi SSE 5.8 mph - N/A   Overcast
2:15 AM 68.0 °F - 59.0 °F 73% 29.97 in 10.0 mi South 5.8 mph - N/A Thunderstorm Thunderstorm
2:35 AM 68.0 °F - 59.0 °F 73% 29.97 in 10.0 mi SSE 5.8 mph - N/A   Overcast
2:55 AM 68.0 °F - 59.0 °F 73% 29.97 in 10.0 mi NNW 4.6 mph - N/A Thunderstorm Overcast
3:15 AM 64.4 °F - 62.6 °F 94% 29.98 in 10.0 mi Calm Calm - N/A   Overcast
3:35 AM 64.4 °F - 62.6 °F 94% 29.97 in 9.0 mi Calm Calm - N/A   Mostly Cloudy
3:55 AM 64.4 °F - 62.6 °F 94% 29.97 in 10.0 mi Calm Calm - N/A   Overcast
4:15 AM 64.4 °F - 62.6 °F 94% 29.97 in 9.0 mi Calm Calm - N/A   Overcast
4:35 AM 64.4 °F - 62.6 °F 94% 29.96 in 9.0 mi East 3.5 mph - N/A   Overcast
4:55 AM 64.4 °F - 62.6 °F 94% 29.97 in 10.0 mi Calm Calm - N/A   Overcast
5:15 AM 62.6 °F - 60.8 °F 94% 29.97 in 10.0 mi SSE 3.5 mph - N/A   Overcast
5:35 AM 64.4 °F - 60.8 °F 88% 29.97 in 10.0 mi ESE 5.8 mph - N/A   Overcast
5:55 AM 62.6 °F - 60.8 °F 94% 29.97 in 10.0 mi ESE 6.9 mph - N/A   Overcast
6:35 AM 62.6 °F - 59.0 °F 88% 29.96 in 10.0 mi SE 8.1 mph - N/A   Mostly Cloudy
7:45 AM 62.6 °F - 57.2 °F 82% 29.97 in 10.0 mi SE 6.9 mph - N/A   Scattered Clouds
9:45 AM 71.6 °F - 60.8 °F 69% 29.97 in 10.0 mi SSE 6.9 mph - N/A   Partly Cloudy
10:58 AM 77.0 °F - 53.6 °F 44% 29.96 in 10.0 mi SSW 12.7 mph 20.7 mph N/A   Partly Cloudy
11:55 AM 80.6 °F 80.3 °F 53.6 °F 39% 29.96 in 10.0 mi SW 8.1 mph - N/A   Partly Cloudy
12:58 PM 80.6 °F 80.5 °F 55.4 °F 42% 29.95 in 10.0 mi SW 11.5 mph 17.3 mph N/A   Partly Cloudy
1:45 PM 80.6 °F 80.8 °F 57.2 °F 45% 29.93 in 10.0 mi SW 9.2 mph 17.3 mph N/A   Partly Cloudy
2:46 PM 82.4 °F 82.0 °F 57.2 °F 42% 29.91 in 10.0 mi SSW 11.5 mph 17.3 mph N/A   Scattered Clouds
3:48 PM 80.6 °F 80.8 °F 57.2 °F 45% 29.90 in 10.0 mi SSW 9.2 mph 16.1 mph N/A   Partly Cloudy
4:48 PM 80.6 °F 80.8 °F 57.2 °F 45% 29.90 in 10.0 mi South 10.4 mph 16.1 mph N/A   Partly Cloudy
5:47 PM 77.0 °F - 57.2 °F 50% 29.91 in 10.0 mi South 11.5 mph - N/A   Partly Cloudy
6:50 PM 75.2 °F - 55.4 °F 50% 29.91 in 10.0 mi South 9.2 mph - N/A   Partly Cloudy
7:47 PM 73.4 °F - 55.4 °F 53% 29.93 in 10.0 mi SSE 8.1 mph - N/A   Partly Cloudy
8:46 PM 69.8 °F - 57.2 °F 64% 29.94 in 10.0 mi SSE 8.1 mph - N/A   Clear
9:15 PM 69.8 °F - 57.2 °F 64% 29.95 in 10.0 mi SSE 6.9 mph - N/A   Clear
9:35 PM 68.0 °F - 57.2 °F 68% 29.96 in 10.0 mi South 4.6 mph - N/A   Clear
9:55 PM 68.0 °F - 57.2 °F 68% 29.96 in 10.0 mi South 4.6 mph - N/A   Partly Cloudy
10:15 PM 68.0 °F - 57.2 °F 68% 29.96 in 10.0 mi SSE 5.8 mph - N/A   Partly Cloudy
10:35 PM 68.0 °F - 57.2 °F 68% 29.96 in 10.0 mi South 4.6 mph - N/A   Partly Cloudy
10:55 PM 68.0 °F - 59.0 °F 73% 29.97 in 10.0 mi South 3.5 mph - N/A   Partly Cloudy
11:35 PM 66.2 °F - 59.0 °F 78% 29.97 in 10.0 mi South 4.6 mph - N/A   Partly Cloudy
11:55 PM 66.2 °F - 59.0 °F 78% 29.98 in 10.0 mi South 3.5 mph - N/A   Partly Cloudy